Weather in Barranquilla

Colombia     10˚57′18″N   74˚47′11″W
temp.,
°C
wind,
m/s
gust,
m/s
humid.,
%
clouds,
%
prec.,
mm/h
press.,
hPa
HPBL,
m
28 november, sat
sat2801:00+27˚e367962 0.0 1009369
04:00+26˚se248376 1.6 1009174
07:00+25˚sse348544 2.4 1011231
10:00+30˚se236788 1.1 1013777
13:00+30˚ne226966 7.0 1010699
16:00+29˚nne677072 0.5 1008985
19:00+28˚ne7117684 0.6 1010810
22:00+27˚ene477999 0.0 1011564
29 november, sun
sun2901:00+26˚e358179 0.0 1009281
04:00+25˚ese238493 0.0 1009158
07:00+26˚sse128396 0.1 1010164
10:00+31˚nnw016182 0.0 1012821
13:00+30˚nne347287 2.5 1009751
16:00+30˚ne567169 0.1 1008882
19:00+28˚ne697769 0.2 1009564
22:00+28˚ene4679100 0.0 1011359
30 november, mon
mon3001:00+27˚e3585100 0.0 1010275
04:00+26˚ese2486100 0.1 1009191
07:00+26˚sse2385100 1.1 1011155
10:00+30˚ssw1166100 0.8 1012672
13:00+29˚n447495 3.2 1008716
16:00+29˚nne467690 1.9 1007782
19:00+28˚ne478193 2.0 1008521
22:00+27˚e478283 0.0 1010448
1 december, tue
tue101:00+26˚ese358892 0.0 1009282
04:00+25˚ese3588100 0.1 1008256
07:00+25˚sse3588100 0.4 1010256
10:00+29˚sse2375100 3.1 1011415
13:00+31˚nnw1267100 4.4 1008776
16:00+28˚nnw3475100 2.3 1007555
19:00+26˚wnw3480100 7.4 1009217
22:00+26˚w248198 0.3 1010222
2 december, wed
wed201:00+25˚w248599 3.9 1010192
04:00+25˚sw238599 2.7 1009168
07:00+25˚sse228696 2.7 1011148
10:00+29˚s227488 1.9 1012630
13:00+29˚nnw117294 7.1 1010490
16:00+28˚nnw347498 2.9 1008658
19:00+27˚wnw247999 3.5 1011319
22:00+26˚s128295 0.1 1012138